SCP
0 0 0 0 0 0 0 0 0 0 0 0 0 0 0 0 0 0 0 0 0 0 0 0 0 0 0 0 0 0 0 0 0 0 0 0 0 0 0 0 0 0 0
0 0 0 0 0 0 0 0 0 0 0 0 0 0 0 0 0 0 0 0 0 0 0 0 0 0 0 0 0 0 0 0 0 0 0 0 0 0 0 0 0 0 0
0 0 0 0 0 0 0 0 0 0 0 0 0 0 0 0 0 0 0 0 0 0 0 0 0 0 0 0 0 0 0 0 0 0 0 0 0 0 0 0 0 0 0
0 0 0 0 0 0 0 0 0 0 0 0 0 0 0 0 0 0 0 0 0 0 0 0 0 0 0 0 0 0 0 0 0 0 0 0 0 0 0 0 0 0 0
0 0 0 0 0 0 0 0 0 0 0 0 0 0 0 0 0 0 0 0 0 0 0 0 0 0 0 0 0 0 0 0 0 0 0 0 0 0 0 0 0 0 0
0 0 0 0 0 0 0 0 0 0 0 0 0 0 0 0 0 0 0 0 0 0 0 0 0 0 0 0 0 0 0 0 0 0 0 0 0 0 0 0 0 0 0
0 0 0 0 0 0 0 0 0 0 0 0 0 0 0 0 0 0 0 0 0 0 0 0 0 0 0 0 0 0 0 0 0 0 0 0 0 0 0 0 0 0 0
0 0 0 0 0 0 0 0 0 0 0 0 0 0 0 0 0 0 0 0 0 0 0 0 0 0 0 0 0 0 0 0 0 0 0 0 0 0 0 0 0 0 0
0 0 0 0 0 0 0 0 0 0 0 0 0 0 0 0 0 0 0 0 0 0 0 0 0 0 0 0 0 0 0 0 0 0 0 0 0 0 0 0 0 0 0
0 0 0 0 0 0 0 0 0 0 0 0 0 0 0 0 0 0 0 0 0 0 0 0 0 0 0 0 0 0 0 0 0 0 0 0 0 0 0 0 0 0 0
0 0 0 0 0 0 0 0 0 0 0 0 0 0 0 0 0 0 0 0 0 0 0 0 0 0 0 0 0 0 0 0 0 0 0 0 0 0 0 0 0 0 0
0 0 0 0 0 0 0 0 0 0 0 0 0 0 0 0 0 0 0 0 0 0 0 0 0 0 0 0 0 0 0 0 0 0 0 0 0 0 0 0 0 0 0
0 0 0 0 0 0 0 0 0 0 0 0 0 0 0 0 0 0 0 0 0 0 0 0 0 0 0 0 0 0 0 0 0 0 0 0 0 0 0 0 0 0 0
0 0 0 0 0 0 0 0 0 0 0 0 0 0 0 0 0 0 0 0 0 0 0 0 0 0 0 0 0 0 0 0 0 0 0 0 0 0 0 0 0 0 0
0 0 0 0 0 0 0 0 0 0 0 0 0 0 0 0 0 0 0 0 0 0 0 0 0 0 0 0 0 0 0 0 0 0 0 0 0 0 0 0 0 0 0
0 0 0 0 0 0 0 0 0 0 0 0 0 0 0 0 0 0 0 0 0 0 0 0 0 0 0 0 0 0 0 0 0 0 0 0 0 0 0 0 0 0 0
0 0 0 0 0 0 0 0 0 0 0 0 0 0 0 0 0 0 0 0 0 0 0 0 0 0 0 0 0 0 0 0 0 0 0 0 0 0 0 0 0 0 0
0 0 0 0 0 0 0 0 0 0 0 0 0 0 0 0 0 0 0 0 0 0 0 0 0 0 0 0 0 0 0 0 0 0 0 0 0 0 0 0 0 0 0
0 0 0 0 0 0 0 0 0 0 0 0 0 0 0 0 0 0 0 0 0 0 0 0 0 0 0 0 0 0 0 0 0 0 0 0 0 0 0 0 0 0 0
0 0 0 0 0 0 0 0 0 0 0 0 0 0 0 0 0 0 0 0 0 0 0 0 0 0 0 0 0 0 0 0 0 0 0 0 0 0 0 0 0 0 0
0 0 0 0 0 0 0 0 0 0 0 0 0 0 0 0 0 0 0 0 0 0 0 0 0 0 0 0 0 0 0 0 0 0 0 0 0 0 0 0 0 0 0
0 0 0 0 0 0 0 0 0 0 0 0 0 0 0 0 0 0 0 0 0 0 0 0 0 0 0 0 0 0 0 0 0 0 0 0 0 0 0 0 0 0 0
0 0 0 0 0 0 0 0 0 0 0 0 0 0 0 0 0 0 0 0 0 0 0 0 0 0 0 0 0 0 0 0 0 0 0 0 0 0 0 0 0 0 0
0 0 0 0 0 0 0 0 0 0 0 0 0 0 0 0 0 0 0 0 0 0 0 0 0 0 0 0 0 0 0 0 0 0 0 0 0 0 0 0 0 0 0
0 0 0 0 0 0 0 0 0 0 0 0 0 0 0 0 0 0 0 0 0 0 0 0 0 0 0 0 0 0 0 0 0 0 0 0 0 0 0 0 0 0 0
0 0 0 0 0 0 0 0 0 0 0 0 0 0 0 0 0 0 0 0 0 0 0 0 0 0 0 0 0 0 0 0 0 0 0 0 0 0 0 0 0 0 0
Wind_Speed_500mb
16 18 20 22 23 25 27 29 31 34 36 39 41 44 46 47 48 55 60 65 70 73 75 80 85 84 89 91 92 96 100 98 104 130 100 100 107 104 97 90 87 83 85
16 19 21 23 25 27 30 33 35 37 39 41 44 47 51 53 54 56 59 61 67 73 75 78 83 84 88 87 89 95 100 97 105 108 110 101 107 102 98 93 90 88 85
16 19 22 25 28 31 34 38 41 44 47 50 53 55 56 58 61 64 68 69 69 71 73 76 79 79 84 83 82 90 90 96 98 104 114 103 106 105 101 98 95 91 89
18 22 25 29 33 38 43 47 52 56 59 60 61 63 63 63 64 68 72 75 78 81 81 81 80 78 78 79 81 82 88 90 91 100 106 105 104 106 102 101 98 94 92
24 28 33 37 42 47 51 55 59 61 63 65 66 65 66 67 66 68 70 73 77 79 79 79 81 81 81 76 69 74 75 82 83 90 100 98 98 104 105 101 97 90 88
30 36 43 49 54 59 64 67 70 72 73 74 73 76 76 71 69 71 73 76 76 80 83 82 82 83 82 78 70 66 71 78 88 92 95 93 100 99 100 98 92 82 76
38 44 51 56 61 65 68 70 73 76 78 79 79 80 82 82 78 76 74 77 80 80 81 82 84 82 82 79 72 67 71 73 77 80 89 97 98 96 98 94 89 80 75
49 54 60 64 67 67 69 70 72 76 80 83 84 84 87 88 85 85 82 80 79 79 80 81 80 81 78 75 74 76 75 75 73 72 80 89 90 87 88 90 80 62 56
58 60 60 62 65 67 71 74 76 81 83 85 87 89 90 90 88 87 86 85 85 84 80 77 73 74 73 65 68 75 78 78 71 68 73 77 79 71 65 61 62 53 46
55 56 56 60 64 69 72 76 76 77 83 84 85 83 86 89 86 86 84 83 85 84 81 76 66 60 62 65 66 69 75 74 69 62 58 57 54 49 49 42 47 48 45
54 55 56 58 64 68 74 78 81 82 81 83 84 83 83 82 82 81 80 77 75 76 75 71 67 61 58 58 57 60 63 60 56 47 43 38 29 23 24 26 30 32 44
56 57 61 65 67 71 75 78 79 82 85 86 84 85 84 82 76 73 71 66 61 60 63 61 58 50 47 48 53 54 48 41 42 33 31 24 20 17 18 14 16 24 34
63 67 70 71 71 72 76 78 79 78 80 84 82 83 83 76 71 59 54 51 48 45 43 41 42 45 44 39 32 27 23 19 21 20 15 15 13 9 7 10 12 14 18
69 72 74 75 74 74 75 76 77 74 75 76 75 73 70 66 60 54 51 42 35 29 33 35 31 24 22 19 15 16 15 12 13 11 12 7 3 8 11 14 18 17 15
69 72 72 74 76 78 77 75 75 73 66 67 66 63 58 62 56 49 46 29 26 26 24 16 13 14 18 20 18 18 18 18 15 11 7 10 15 17 17 13 6 5 5
69 69 71 74 76 78 81 83 73 67 59 50 46 45 49 53 48 39 27 18 17 14 7 10 13 15 17 17 19 24 27 19 13 13 14 18 18 12 7 3 3 7 10
65 68 71 73 74 74 73 72 77 65 44 39 35 32 44 44 35 22 11 9 12 5 2 8 12 15 16 18 21 19 22 24 23 18 13 11 7 1 5 9 10 12 13
62 62 64 67 67 66 63 60 56 53 51 34 29 28 33 35 27 18 11 16 11 3 3 5 7 8 7 6 6 7 8 7 5 3 1 4 8 11 14 15 15 14 14
56 57 59 61 59 57 53 48 42 40 38 36 32 30 31 33 26 19 18 18 15 7 3 3 4 5 7 7 7 7 8 7 6 5 5 7 10 12 13 13 14 14 15
51 49 50 53 51 47 41 38 32 30 30 31 31 30 23 21 18 13 13 11 9 6 4 3 4 5 5 6 6 7 8 8 7 6 6 6 7 8 9 10 10 11 13
44 41 40 40 40 37 32 28 25 26 25 22 18 15 4 5 11 10 8 7 6 5 3 3 4 4 6 8 10 11 12 14 14 15 15 15 15 15 15 15 15 15 16
39 36 33 32 29 28 25 21 19 19 17 14 12 6 3 3 4 5 5 5 4 3 1 2 4 6 9 11 14 17 19 20 21 21 21 21 20 20 19 19 19 19 20
32 29 28 26 24 22 20 17 16 17 15 13 9 7 6 5 4 3 2 1 3 5 7 10 13 16 19 21 22 22 22 21 20 19 19 18 18 18 18 18 18 19 20
27 24 22 21 19 17 16 15 15 15 14 11 9 8 6 5 4 5 7 9 12 15 17 19 21 21 21 19 17 16 16 17 18 19 18 18 18 18 18 19 19 19 20
25 21 18 17 15 15 15 14 13 13 12 11 10 8 7 9 13 16 18 20 21 21 20 19 17 16 17 17 17 17 17 19 20 21 21 21 22 23 23 23 23 22 23
24 22 20 18 17 16 17 17 17 16 17 16 14 14 17 20 23 24 22 20 17 17 17 18 19 19 21 23 24 25 26 28 29 27 28 28 29 29 28 28 28 28 28
Wind_Direction_500mb
45 31 17 6 1 354 345 338 334 330 326 324 321 318 315 309 303 297 293 290 287 286 284 283 282 281 279 279 280 277 274 271 268 283 279 279 283 286 286 287 285 280 283
14 4 356 352 346 342 340 338 335 334 331 327 323 320 317 316 313 308 303 299 294 291 289 285 284 284 281 277 274 277 274 272 273 272 283 283 284 287 287 286 285 283 282
4 359 354 350 347 346 343 340 338 334 331 328 324 320 316 314 312 310 308 306 303 301 298 295 293 289 286 284 279 277 274 273 273 275 279 283 282 284 284 284 283 283 281
2 357 351 346 343 340 336 332 329 326 324 322 321 320 318 315 312 307 304 302 302 301 301 301 300 296 291 287 283 279 276 274 276 275 276 279 280 280 280 279 281 281 280
357 350 344 338 333 329 326 323 320 318 316 316 315 313 314 314 315 311 306 303 301 300 300 300 299 298 295 291 284 281 275 275 276 275 277 278 274 277 279 283 282 284 283
340 335 331 328 325 323 320 318 315 314 313 312 312 312 312 311 311 309 308 305 303 301 300 298 297 296 295 293 287 279 272 270 271 273 275 273 276 277 282 283 284 279 273
324 323 322 321 320 319 317 315 314 312 311 310 309 308 308 309 310 307 306 303 303 303 302 301 300 299 297 296 293 285 276 270 267 271 273 274 276 277 279 279 279 278 274
319 319 319 318 317 316 315 313 313 311 310 310 308 308 307 307 309 309 309 306 303 301 300 300 299 298 298 299 296 289 283 280 276 272 270 273 274 276 274 277 280 277 263
316 318 318 317 316 315 313 311 309 307 305 304 305 305 305 305 307 307 307 306 304 303 302 298 296 297 298 295 291 292 293 290 287 280 277 276 275 274 271 269 257 250 240
316 318 318 316 313 311 309 306 304 303 302 303 302 303 304 305 307 307 306 305 303 304 303 300 299 300 299 298 294 292 290 292 293 292 286 281 277 267 267 260 260 253 228
314 315 315 314 312 310 309 308 308 304 301 301 303 303 305 308 309 307 306 304 302 301 299 301 304 303 298 297 295 291 291 295 292 296 295 293 286 270 252 243 249 249 234
313 313 313 313 310 308 307 309 309 308 306 304 305 305 306 310 312 308 305 303 301 297 297 299 302 307 306 304 300 297 295 292 294 298 301 302 292 265 239 225 208 223 230
312 311 309 309 309 307 306 306 306 308 307 307 307 307 307 312 316 315 308 307 304 301 301 306 307 308 309 310 313 318 314 313 308 312 301 288 265 253 177 172 181 197 223
315 312 309 307 308 309 309 307 307 308 307 306 304 303 306 312 321 320 318 313 314 308 307 311 320 336 347 355 6 3 2 6 351 344 320 284 217 167 153 168 152 158 172
318 316 313 310 311 310 310 310 309 309 309 304 298 301 307 309 313 309 313 313 311 313 325 344 10 31 38 35 34 32 20 19 31 42 73 119 130 130 128 132 136 163 226
318 317 316 313 313 313 313 311 310 312 310 301 289 285 288 294 304 303 295 299 309 325 8 43 49 56 58 43 44 48 47 46 71 72 107 120 115 102 84 53 318 286 281
316 316 314 312 312 312 313 314 313 313 314 304 295 281 284 293 305 293 280 291 287 318 136 77 64 64 69 71 73 62 55 58 66 78 97 117 137 190 321 321 309 300 290
314 314 312 312 312 313 314 314 312 314 318 317 303 292 278 285 297 282 243 248 268 277 77 85 78 75 72 64 51 40 33 33 42 59 203 248 261 279 296 303 301 292 284
315 316 313 312 312 313 314 313 314 314 312 307 305 296 280 276 283 268 240 245 241 239 177 116 77 68 67 56 44 30 20 9 2 343 318 297 290 291 292 292 289 284 278
315 315 313 313 314 315 315 314 318 311 301 300 302 300 280 262 258 248 227 214 203 195 176 123 85 56 36 26 19 16 13 7 3 355 340 325 313 308 306 304 300 292 284
316 317 313 312 313 317 315 314 311 300 297 300 313 321 333 278 239 217 197 183 172 157 134 82 57 23 3 352 351 348 344 340 337 335 333 330 326 323 317 313 306 295 289
315 315 314 313 315 316 312 309 301 289 287 291 301 317 288 251 200 178 171 171 171 168 205 323 324 323 326 326 324 322 319 318 318 317 317 316 316 313 310 306 300 295 289
309 309 308 309 312 309 305 297 286 278 275 274 272 270 260 249 235 214 204 236 317 320 308 308 310 310 311 311 311 311 312 313 315 316 318 320 319 315 311 306 300 293 287
300 301 301 300 300 295 288 281 274 267 264 262 259 254 253 254 276 318 312 297 296 299 301 302 303 305 309 312 316 321 326 329 326 326 328 328 325 320 314 308 303 296 289
289 291 291 291 289 285 278 268 260 256 254 250 248 257 281 299 293 292 295 299 301 302 304 307 313 317 317 317 319 321 323 322 321 322 321 319 316 312 309 308 305 299 291
276 277 278 277 277 275 272 271 267 262 257 255 260 271 279 285 290 291 292 294 298 303 306 308 310 311 311 310 310 309 308 307 305 305 304 304 302 301 302 302 300 296 292
Wind_Speed_850mb
16 18 20 22 23 25 27 29 31 34 36 39 41 44 46 47 48 55 60 65 70 73 75 80 85 84 89 91 92 96 100 98 104 130 100 100 107 104 97 90 87 83 85
16 19 21 23 25 27 30 33 35 37 39 41 44 47 51 53 54 56 59 61 67 73 75 78 83 84 88 87 89 95 100 97 105 108 110 101 107 102 98 93 90 88 85
16 19 22 25 28 31 34 38 41 44 47 50 53 55 56 58 61 64 68 69 69 71 73 76 79 79 84 83 82 90 90 96 98 104 114 103 106 105 101 98 95 91 89
18 22 25 29 33 38 43 47 52 56 59 60 61 63 63 63 64 68 72 75 78 81 81 81 80 78 78 79 81 82 88 90 91 100 106 105 104 106 102 101 98 94 92
24 28 33 37 42 47 51 55 59 61 63 65 66 65 66 67 66 68 70 73 77 79 79 79 81 81 81 76 69 74 75 82 83 90 100 98 98 104 105 101 97 90 88
30 36 43 49 54 59 64 67 70 72 73 74 73 76 76 71 69 71 73 76 76 80 83 82 82 83 82 78 70 66 71 78 88 92 95 93 100 99 100 98 92 82 76
38 44 51 56 61 65 68 70 73 76 78 79 79 80 82 82 78 76 74 77 80 80 81 82 84 82 82 79 72 67 71 73 77 80 89 97 98 96 98 94 89 80 75
49 54 60 64 67 67 69 70 72 76 80 83 84 84 87 88 85 85 82 80 79 79 80 81 80 81 78 75 74 76 75 75 73 72 80 89 90 87 88 90 80 62 56
58 60 60 62 65 67 71 74 76 81 83 85 87 89 90 90 88 87 86 85 85 84 80 77 73 74 73 65 68 75 78 78 71 68 73 77 79 71 65 61 62 53 46
55 56 56 60 64 69 72 76 76 77 83 84 85 83 86 89 86 86 84 83 85 84 81 76 66 60 62 65 66 69 75 74 69 62 58 57 54 49 49 42 47 48 45
54 55 56 58 64 68 74 78 81 82 81 83 84 83 83 82 82 81 80 77 75 76 75 71 67 61 58 58 57 60 63 60 56 47 43 38 29 23 24 26 30 32 44
56 57 61 65 67 71 75 78 79 82 85 86 84 85 84 82 76 73 71 66 61 60 63 61 58 50 47 48 53 54 48 41 42 33 31 24 20 17 18 14 16 24 34
63 67 70 71 71 72 76 78 79 78 80 84 82 83 83 76 71 59 54 51 48 45 43 41 42 45 44 39 32 27 23 19 21 20 15 15 13 9 7 10 12 14 18
69 72 74 75 74 74 75 76 77 74 75 76 75 73 70 66 60 54 51 42 35 29 33 35 31 24 22 19 15 16 15 12 13 11 12 7 3 8 11 14 18 17 15
69 72 72 74 76 78 77 75 75 73 66 67 66 63 58 62 56 49 46 29 26 26 24 16 13 14 18 20 18 18 18 18 15 11 7 10 15 17 17 13 6 5 5
69 69 71 74 76 78 81 83 73 67 59 50 46 45 49 53 48 39 27 18 17 14 7 10 13 15 17 17 19 24 27 19 13 13 14 18 18 12 7 3 3 7 10
65 68 71 73 74 74 73 72 77 65 44 39 35 32 44 44 35 22 11 9 12 5 2 8 12 15 16 18 21 19 22 24 23 18 13 11 7 1 5 9 10 12 13
62 62 64 67 67 66 63 60 56 53 51 34 29 28 33 35 27 18 11 16 11 3 3 5 7 8 7 6 6 7 8 7 5 3 1 4 8 11 14 15 15 14 14
56 57 59 61 59 57 53 48 42 40 38 36 32 30 31 33 26 19 18 18 15 7 3 3 4 5 7 7 7 7 8 7 6 5 5 7 10 12 13 13 14 14 15
51 49 50 53 51 47 41 38 32 30 30 31 31 30 23 21 18 13 13 11 9 6 4 3 4 5 5 6 6 7 8 8 7 6 6 6 7 8 9 10 10 11 13
44 41 40 40 40 37 32 28 25 26 25 22 18 15 4 5 11 10 8 7 6 5 3 3 4 4 6 8 10 11 12 14 14 15 15 15 15 15 15 15 15 15 16
39 36 33 32 29 28 25 21 19 19 17 14 12 6 3 3 4 5 5 5 4 3 1 2 4 6 9 11 14 17 19 20 21 21 21 21 20 20 19 19 19 19 20
32 29 28 26 24 22 20 17 16 17 15 13 9 7 6 5 4 3 2 1 3 5 7 10 13 16 19 21 22 22 22 21 20 19 19 18 18 18 18 18 18 19 20
27 24 22 21 19 17 16 15 15 15 14 11 9 8 6 5 4 5 7 9 12 15 17 19 21 21 21 19 17 16 16 17 18 19 18 18 18 18 18 19 19 19 20
25 21 18 17 15 15 15 14 13 13 12 11 10 8 7 9 13 16 18 20 21 21 20 19 17 16 17 17 17 17 17 19 20 21 21 21 22 23 23 23 23 22 23
24 22 20 18 17 16 17 17 17 16 17 16 14 14 17 20 23 24 22 20 17 17 17 18 19 19 21 23 24 25 26 28 29 27 28 28 29 29 28 28 28 28 28
Wind_Direction_850mb
45 31 17 6 1 354 345 338 334 330 326 324 321 318 315 309 303 297 293 290 287 286 284 283 282 281 279 279 280 277 274 271 268 283 279 279 283 286 286 287 285 280 283
14 4 356 352 346 342 340 338 335 334 331 327 323 320 317 316 313 308 303 299 294 291 289 285 284 284 281 277 274 277 274 272 273 272 283 283 284 287 287 286 285 283 282
4 359 354 350 347 346 343 340 338 334 331 328 324 320 316 314 312 310 308 306 303 301 298 295 293 289 286 284 279 277 274 273 273 275 279 283 282 284 284 284 283 283 281
2 357 351 346 343 340 336 332 329 326 324 322 321 320 318 315 312 307 304 302 302 301 301 301 300 296 291 287 283 279 276 274 276 275 276 279 280 280 280 279 281 281 280
357 350 344 338 333 329 326 323 320 318 316 316 315 313 314 314 315 311 306 303 301 300 300 300 299 298 295 291 284 281 275 275 276 275 277 278 274 277 279 283 282 284 283
340 335 331 328 325 323 320 318 315 314 313 312 312 312 312 311 311 309 308 305 303 301 300 298 297 296 295 293 287 279 272 270 271 273 275 273 276 277 282 283 284 279 273
324 323 322 321 320 319 317 315 314 312 311 310 309 308 308 309 310 307 306 303 303 303 302 301 300 299 297 296 293 285 276 270 267 271 273 274 276 277 279 279 279 278 274
319 319 319 318 317 316 315 313 313 311 310 310 308 308 307 307 309 309 309 306 303 301 300 300 299 298 298 299 296 289 283 280 276 272 270 273 274 276 274 277 280 277 263
316 318 318 317 316 315 313 311 309 307 305 304 305 305 305 305 307 307 307 306 304 303 302 298 296 297 298 295 291 292 293 290 287 280 277 276 275 274 271 269 257 250 240
316 318 318 316 313 311 309 306 304 303 302 303 302 303 304 305 307 307 306 305 303 304 303 300 299 300 299 298 294 292 290 292 293 292 286 281 277 267 267 260 260 253 228
314 315 315 314 312 310 309 308 308 304 301 301 303 303 305 308 309 307 306 304 302 301 299 301 304 303 298 297 295 291 291 295 292 296 295 293 286 270 252 243 249 249 234
313 313 313 313 310 308 307 309 309 308 306 304 305 305 306 310 312 308 305 303 301 297 297 299 302 307 306 304 300 297 295 292 294 298 301 302 292 265 239 225 208 223 230
312 311 309 309 309 307 306 306 306 308 307 307 307 307 307 312 316 315 308 307 304 301 301 306 307 308 309 310 313 318 314 313 308 312 301 288 265 253 177 172 181 197 223
315 312 309 307 308 309 309 307 307 308 307 306 304 303 306 312 321 320 318 313 314 308 307 311 320 336 347 355 6 3 2 6 351 344 320 284 217 167 153 168 152 158 172
318 316 313 310 311 310 310 310 309 309 309 304 298 301 307 309 313 309 313 313 311 313 325 344 10 31 38 35 34 32 20 19 31 42 73 119 130 130 128 132 136 163 226
318 317 316 313 313 313 313 311 310 312 310 301 289 285 288 294 304 303 295 299 309 325 8 43 49 56 58 43 44 48 47 46 71 72 107 120 115 102 84 53 318 286 281
316 316 314 312 312 312 313 314 313 313 314 304 295 281 284 293 305 293 280 291 287 318 136 77 64 64 69 71 73 62 55 58 66 78 97 117 137 190 321 321 309 300 290
314 314 312 312 312 313 314 314 312 314 318 317 303 292 278 285 297 282 243 248 268 277 77 85 78 75 72 64 51 40 33 33 42 59 203 248 261 279 296 303 301 292 284
315 316 313 312 312 313 314 313 314 314 312 307 305 296 280 276 283 268 240 245 241 239 177 116 77 68 67 56 44 30 20 9 2 343 318 297 290 291 292 292 289 284 278
315 315 313 313 314 315 315 314 318 311 301 300 302 300 280 262 258 248 227 214 203 195 176 123 85 56 36 26 19 16 13 7 3 355 340 325 313 308 306 304 300 292 284
316 317 313 312 313 317 315 314 311 300 297 300 313 321 333 278 239 217 197 183 172 157 134 82 57 23 3 352 351 348 344 340 337 335 333 330 326 323 317 313 306 295 289
315 315 314 313 315 316 312 309 301 289 287 291 301 317 288 251 200 178 171 171 171 168 205 323 324 323 326 326 324 322 319 318 318 317 317 316 316 313 310 306 300 295 289
309 309 308 309 312 309 305 297 286 278 275 274 272 270 260 249 235 214 204 236 317 320 308 308 310 310 311 311 311 311 312 313 315 316 318 320 319 315 311 306 300 293 287
300 301 301 300 300 295 288 281 274 267 264 262 259 254 253 254 276 318 312 297 296 299 301 302 303 305 309 312 316 321 326 329 326 326 328 328 325 320 314 308 303 296 289
289 291 291 291 289 285 278 268 260 256 254 250 248 257 281 299 293 292 295 299 301 302 304 307 313 317 317 317 319 321 323 322 321 322 321 319 316 312 309 308 305 299 291
276 277 278 277 277 275 272 271 267 262 257 255 260 271 279 285 290 291 292 294 298 303 306 308 310 311 311 310 310 309 308 307 305 305 304 304 302 301 302 302 300 296 292